Location: Curupao
(10.4996°N, 66.6442°W)
Time: 11:55:57
(UTC+00:00)

Cosmos 1943 - Pass Details

Date: 23 May 2024
Orbit: 834 x 848 km, 71.0° (Epoch: 20 June)

Event Time Altitude Azimuth Distance (km) Brightness Sun altitude
Exits shadow 00:26:44 28° 52° (NE) 1,526 4.3 -24.0°
Drops below altitude 10° 00:29:38 10° 34° (NNE) 2,461 5.6 -24.7°
Sets 00:32:10 0° 27° (NNE) 3,394 6.4 -25.2°
